Preview of NWS' New Version of Forecast
This preview is not operational and should not be used for support decisions.

Regional Weather Roundup (RWR)

Issued by National Weather Service (NWS)

                            
000
ASUS43 KBIS 211302
RWRND 

NORTH DAKOTA REGIONAL WEATHER ROUNDUP
NATIONAL WEATHER SERVICE BISMARCK ND
700 AM CST THU FEB 21 2019

NOTE: "FAIR" INDICATES FEW OR NO CLOUDS BELOW 12,000 FEET WITH NO
SIGNIFICANT WEATHER AND/OR OBSTRUCTIONS TO VISIBILITY.


NDZ001>003-009>011-017-211400-
NORTHWEST NORTH DAKOTA
  
CITY           SKY/WX    TMP DP  RH WIND       PRES   REMARKS
WILLISTON      CLOUDY    -1  -6  79 W5        30.01R WCI -11          
MINOT          FLURRIES   7   2  80 W10       29.98R WCI  -8          
$$
 
NDZ018>021-031>035-040>046-211400-
SOUTHWEST NORTH DAKOTA
  
CITY           SKY/WX    TMP DP  RH WIND       PRES   REMARKS
BISMARCK       MOCLDY     1  -2  87 W7        30.02R WCI -12          
DICKINSON      CLOUDY     0  -4  83 W8        29.92R WCI -14          
GARRISON         N/A      5   1  83 NW12      29.97R WCI -11          
HETTINGER ARPT CLEAR     -7 -11  83 W6        29.97R WCI -20          
$$
 
NDZ004>008-012>016-024-026-027-054-211400-
NORTHEAST NORTH DAKOTA
  
CITY           SKY/WX    TMP DP  RH WIND       PRES   REMARKS
GRAND FORKS    CLOUDY    13  10  88 N12       29.98R WCI  -1          
GRND FRKS AFB  LGT SNOW  15  12  88 N13       29.98R WCI   1          
DEVILS LAKE    LGT SNOW  10   7  87 NW9       29.98R FOG     WCI  -3  
$$
 
NDZ022-023-025-028>030-036>039-047>053-211400-
SOUTHEAST NORTH DAKOTA
  
CITY           SKY/WX    TMP DP  RH WIND       PRES   REMARKS
FARGO          CLEAR      5   3  91 NW8       29.98R FOG     WCI  -8  
JAMESTOWN      CLEAR      5   2  87 NW8       29.97R WCI  -8          
$$